VLG553K LEBL-LFLL

Flight info

Callsign VLG553K
Flight time 0h 58m
Altitude 30000
Route DALIN DCT PIVUS DCT DIBER DCT SOSUR DCT SOFFY DCT MRM DCT MTL
Aircraft A320/M-SDE3FGHIRWY/LB1

Departure

Time 2026-05-06 09:27
Airport Josep Tarradellas Barcelona-El Prat Airport (LEBL)

Arrival

Time 2026-05-06 10:25
Airport Lyon Saint-Exupéry Airport (LFLL)
Time Latitude Longitude Altitude Speed Heading
2026-05-06 09:03 41.29120 2.07312 19 ft 0 kts 155°
2026-05-06 09:13 41.29129 2.07307 19 ft 2 kts 155°
2026-05-06 09:13 41.29142 2.07298 19 ft 2 kts 155°
2026-05-06 09:13 41.29155 2.07291 19 ft 0 kts 155°
2026-05-06 09:14 41.29165 2.07284 19 ft 2 kts 138°
2026-05-06 09:14 41.29174 2.07269 19 ft 2 kts 116°
2026-05-06 09:14 41.29178 2.07250 19 ft 2 kts 94°
2026-05-06 09:14 41.29177 2.07230 19 ft 1 kts 71°
2026-05-06 09:15 41.29174 2.07222 19 ft 1 kts 62°
2026-05-06 09:15 41.29173 2.07219 19 ft 0 kts 65°
2026-05-06 09:19 41.29187 2.07257 19 ft 8 kts 65°
2026-05-06 09:19 41.29215 2.07340 19 ft 10 kts 65°
2026-05-06 09:19 41.29273 2.07384 19 ft 11 kts
2026-05-06 09:20 41.29323 2.07479 19 ft 15 kts 66°
2026-05-06 09:20 41.29360 2.07616 19 ft 16 kts 65°
2026-05-06 09:20 41.29416 2.07772 19 ft 20 kts 65°
2026-05-06 09:20 41.29475 2.07944 19 ft 20 kts 66°
2026-05-06 09:21 41.29535 2.08115 19 ft 20 kts 66°
2026-05-06 09:21 41.29570 2.08285 19 ft 19 kts 88°
2026-05-06 09:21 41.29617 2.08441 19 ft 16 kts 65°
2026-05-06 09:21 41.29579 2.08544 19 ft 15 kts 159°
2026-05-06 09:22 41.29479 2.08603 19 ft 16 kts 155°
2026-05-06 09:22 41.29374 2.08667 19 ft 17 kts 156°
2026-05-06 09:22 41.29264 2.08733 19 ft 18 kts 155°
2026-05-06 09:22 41.29126 2.08815 19 ft 24 kts 154°
2026-05-06 09:23 41.28970 2.08911 19 ft 22 kts 147°
2026-05-06 09:23 41.28983 2.09084 19 ft 18 kts 65°
2026-05-06 09:23 41.29047 2.09272 18 ft 28 kts 66°
2026-05-06 09:23 41.29132 2.09513 18 ft 28 kts 65°
2026-05-06 09:24 41.29212 2.09748 17 ft 27 kts 65°
2026-05-06 09:24 41.29293 2.09956 17 ft 22 kts 56°
2026-05-06 09:24 41.29320 2.10111 17 ft 19 kts 111°
2026-05-06 09:24 41.29277 2.10256 16 ft 14 kts 110°
2026-05-06 09:25 41.29206 2.10282 17 ft 14 kts 244°
2026-05-06 09:25 41.29198 2.10260 17 ft 0 kts 247°
2026-05-06 09:25 41.29197 2.10256 17 ft 0 kts 247°
2026-05-06 09:26 41.29185 2.10217 17 ft 24 kts 246°
2026-05-06 09:26 41.29009 2.09697 18 ft 96 kts 245°
2026-05-06 09:27 41.28649 2.08641 20 ft 154 kts 246°
2026-05-06 09:27 41.28175 2.07216 377 ft 172 kts 246°
2026-05-06 09:27 41.27568 2.05938 1146 ft 165 kts 221°
2026-05-06 09:27 41.26546 2.05354 1846 ft 164 kts 185°
2026-05-06 09:28 41.25373 2.05409 2335 ft 178 kts 174°
2026-05-06 09:28 41.24101 2.05582 2810 ft 195 kts 174°
2026-05-06 09:28 41.22744 2.06111 3225 ft 217 kts 143°
2026-05-06 09:28 41.21866 2.07798 3684 ft 238 kts 102°
2026-05-06 09:29 41.21994 2.10008 4242 ft 253 kts 64°
2026-05-06 09:29 41.22964 2.12011 4845 ft 269 kts 52°
2026-05-06 09:29 41.24086 2.14065 5597 ft 280 kts 54°
2026-05-06 09:29 41.25158 2.16225 6450 ft 286 kts 57°
2026-05-06 09:30 41.26185 2.18503 7322 ft 291 kts 59°
2026-05-06 09:30 41.27170 2.20847 8188 ft 295 kts 60°
2026-05-06 09:30 41.28141 2.23260 9027 ft 299 kts 60°
2026-05-06 09:30 41.29092 2.25685 9830 ft 303 kts 61°
2026-05-06 09:31 41.30062 2.28199 10522 ft 310 kts 61°
2026-05-06 09:31 41.31070 2.30828 10966 ft 326 kts 62°
2026-05-06 09:31 41.32090 2.33510 11618 ft 332 kts 62°
2026-05-06 09:31 41.33138 2.36277 12352 ft 335 kts 62°
2026-05-06 09:32 41.34183 2.39039 13052 ft 339 kts 62°
2026-05-06 09:32 41.35234 2.41827 13717 ft 343 kts 62°
2026-05-06 09:32 41.36304 2.44664 14354 ft 347 kts 62°
2026-05-06 09:32 41.37395 2.47562 14961 ft 352 kts 62°
2026-05-06 09:33 41.38500 2.50501 15551 ft 358 kts 62°
2026-05-06 09:33 41.39615 2.53466 16127 ft 363 kts 62°
2026-05-06 09:33 41.40740 2.56464 16674 ft 368 kts 62°
2026-05-06 09:33 41.41892 2.59539 17253 ft 372 kts 62°
2026-05-06 09:34 41.43052 2.62637 17830 ft 376 kts 62°
2026-05-06 09:34 41.44227 2.65777 18383 ft 380 kts 63°
2026-05-06 09:34 41.45404 2.68923 18885 ft 385 kts 63°
2026-05-06 09:34 41.46598 2.72124 19381 ft 390 kts 63°
2026-05-06 09:35 41.47813 2.75378 19882 ft 395 kts 63°
2026-05-06 09:35 41.49043 2.78683 20384 ft 399 kts 63°
2026-05-06 09:35 41.50277 2.82003 20860 ft 403 kts 63°
2026-05-06 09:35 41.51518 2.85344 21331 ft 407 kts 63°
2026-05-06 09:36 41.52780 2.88744 21799 ft 411 kts 63°
2026-05-06 09:36 41.54054 2.92180 22242 ft 416 kts 64°
2026-05-06 09:36 41.55329 2.95625 22665 ft 420 kts 64°
2026-05-06 09:36 41.56620 2.99114 23093 ft 424 kts 64°
2026-05-06 09:37 41.57932 3.02666 23494 ft 429 kts 64°
2026-05-06 09:37 41.59256 3.06259 23926 ft 432 kts 64°
2026-05-06 09:37 41.60582 3.09857 24393 ft 435 kts 64°
2026-05-06 09:37 41.61920 3.13497 24849 ft 438 kts 64°
2026-05-06 09:38 41.63263 3.17152 25285 ft 440 kts 64°
2026-05-06 09:38 41.64599 3.20790 25693 ft 443 kts 64°
2026-05-06 09:38 41.65956 3.24494 26113 ft 446 kts 64°
2026-05-06 09:38 41.67319 3.28216 26507 ft 449 kts 64°
2026-05-06 09:39 41.68695 3.31978 26915 ft 452 kts 64°
2026-05-06 09:39 41.70084 3.35783 27333 ft 454 kts 64°
2026-05-06 09:39 41.71463 3.39564 27837 ft 454 kts 64°
2026-05-06 09:39 41.72824 3.43300 28350 ft 453 kts 64°
2026-05-06 09:40 41.74206 3.47097 28788 ft 454 kts 65°
2026-05-06 09:40 41.75594 3.50916 29159 ft 456 kts 65°
2026-05-06 09:40 41.78371 3.58589 29886 ft 461 kts 65°
2026-05-06 09:41 41.81160 3.66296 29954 ft 462 kts 66°
2026-05-06 09:41 41.83946 3.74032 29945 ft 463 kts 66°
2026-05-06 09:42 41.86777 3.81908 29948 ft 474 kts 66°
2026-05-06 09:42 41.89631 3.89868 29941 ft 474 kts 66°
2026-05-06 09:43 41.92470 3.97808 29939 ft 474 kts 66°
2026-05-06 09:43 41.95319 4.05799 29949 ft 474 kts 66°
2026-05-06 09:44 41.98154 4.13773 29945 ft 475 kts 66°
2026-05-06 09:44 42.00982 4.21748 29944 ft 475 kts 66°
2026-05-06 09:45 42.03816 4.29770 29945 ft 475 kts 66°
2026-05-06 09:45 42.06729 4.37718 29941 ft 477 kts 60°
2026-05-06 09:46 42.10676 4.44833 29941 ft 478 kts 45°
2026-05-06 09:46 42.15561 4.50869 29941 ft 477 kts 39°
2026-05-06 09:47 42.20549 4.56729 29943 ft 476 kts 39°
2026-05-06 09:47 42.25493 4.62638 29946 ft 477 kts 40°
2026-05-06 09:48 42.30456 4.68630 29941 ft 478 kts 41°
2026-05-06 09:48 42.35386 4.74608 29942 ft 478 kts 40°
2026-05-06 09:49 42.40336 4.80620 29938 ft 479 kts 41°
2026-05-06 09:49 42.45286 4.86650 29940 ft 479 kts 41°
2026-05-06 09:50 42.50203 4.92650 29939 ft 479 kts 41°
2026-05-06 09:50 42.55374 4.98331 29936 ft 476 kts 29°
2026-05-06 09:51 42.61282 5.02047 29936 ft 469 kts 13°
2026-05-06 09:51 42.67551 5.04483 29937 ft 467 kts 10°
2026-05-06 09:52 42.73769 5.06844 29926 ft 468 kts 10°
2026-05-06 09:52 42.80028 5.09302 29930 ft 468 kts 11°
2026-05-06 09:53 42.86268 5.11787 29931 ft 468 kts 11°
2026-05-06 09:53 42.92497 5.14271 29930 ft 468 kts 11°
2026-05-06 09:54 42.98753 5.16772 29928 ft 469 kts 11°
2026-05-06 09:54 43.05020 5.19296 29914 ft 469 kts 11°
2026-05-06 09:55 43.11255 5.21841 29910 ft 469 kts 11°
2026-05-06 09:55 43.17512 5.24392 29917 ft 469 kts 11°
2026-05-06 09:56 43.23778 5.26955 29921 ft 469 kts 11°
2026-05-06 09:56 43.30033 5.29519 29923 ft 469 kts 11°
2026-05-06 09:57 43.36326 5.31529 29919 ft 458 kts 357°
2026-05-06 09:57 43.39459 5.31494 29921 ft 449 kts 346°
2026-05-06 09:57 43.42472 5.30718 29923 ft 437 kts 335°
2026-05-06 09:58 43.48241 5.28091 29928 ft 433 kts 332°
2026-05-06 09:58 43.53914 5.25399 29923 ft 433 kts 332°
2026-05-06 09:59 43.59589 5.22762 29924 ft 433 kts 332°
2026-05-06 09:59 43.65321 5.20119 29919 ft 434 kts 332°
2026-05-06 10:00 43.71040 5.17492 29916 ft 433 kts 332°
2026-05-06 10:00 43.76738 5.14869 29912 ft 432 kts 332°
2026-05-06 10:01 43.82439 5.12235 29911 ft 433 kts 333°
2026-05-06 10:01 43.88142 5.09599 29808 ft 434 kts 333°
2026-05-06 10:02 43.90973 5.08290 29552 ft 432 kts 333°
2026-05-06 10:02 43.93826 5.06969 29294 ft 431 kts 333°
2026-05-06 10:02 43.96639 5.05666 29034 ft 428 kts 332°
2026-05-06 10:02 43.99453 5.04360 28758 ft 425 kts 333°
2026-05-06 10:03 44.02266 5.03052 28429 ft 422 kts 333°
2026-05-06 10:03 44.05011 5.01773 28051 ft 418 kts 333°
2026-05-06 10:03 44.07764 5.00490 27643 ft 415 kts 333°
2026-05-06 10:03 44.10497 4.99210 27214 ft 411 kts 333°
2026-05-06 10:04 44.13185 4.97955 26761 ft 409 kts 334°
2026-05-06 10:04 44.15870 4.96704 26309 ft 405 kts 334°
2026-05-06 10:04 44.18565 4.95445 25871 ft 402 kts 334°
2026-05-06 10:04 44.21195 4.94211 25464 ft 398 kts 334°
2026-05-06 10:05 44.23775 4.93003 25012 ft 395 kts 334°
2026-05-06 10:05 44.26384 4.91778 24616 ft 391 kts 334°
2026-05-06 10:05 44.28934 4.90575 24206 ft 387 kts 335°
2026-05-06 10:05 44.31467 4.89389 23763 ft 384 kts 335°
2026-05-06 10:06 44.33998 4.88197 23359 ft 380 kts 335°
2026-05-06 10:06 44.36479 4.87023 22983 ft 377 kts 336°
2026-05-06 10:06 44.38945 4.85860 22580 ft 373 kts 336°
2026-05-06 10:06 44.41376 4.84716 22186 ft 370 kts 336°
2026-05-06 10:07 44.43808 4.83566 21784 ft 366 kts 336°
2026-05-06 10:07 44.46212 4.82431 21389 ft 364 kts 337°
2026-05-06 10:07 44.48589 4.81305 21012 ft 361 kts 337°
2026-05-06 10:07 44.50959 4.80181 20635 ft 358 kts 338°
2026-05-06 10:08 44.53286 4.79092 20259 ft 356 kts 340°
2026-05-06 10:08 44.55692 4.78372 19854 ft 357 kts 350°
2026-05-06 10:08 44.58181 4.78236 19461 ft 358 kts
2026-05-06 10:08 44.60648 4.78444 19073 ft 356 kts
2026-05-06 10:09 44.63099 4.78722 18692 ft 354 kts
2026-05-06 10:09 44.65541 4.79002 18315 ft 352 kts
2026-05-06 10:09 44.67970 4.79273 17913 ft 350 kts
2026-05-06 10:09 44.70390 4.79535 17524 ft 348 kts
2026-05-06 10:10 44.72799 4.79789 17145 ft 346 kts
2026-05-06 10:10 44.75188 4.80037 16747 ft 344 kts
2026-05-06 10:10 44.77582 4.80284 16352 ft 343 kts
2026-05-06 10:10 44.79956 4.80530 15951 ft 342 kts
2026-05-06 10:11 44.82320 4.80771 15557 ft 341 kts
2026-05-06 10:11 44.84657 4.81011 15145 ft 340 kts
2026-05-06 10:11 44.87023 4.81254 14747 ft 338 kts
2026-05-06 10:11 44.89364 4.81494 14340 ft 337 kts
2026-05-06 10:12 44.91706 4.81735 13926 ft 336 kts
2026-05-06 10:12 44.94013 4.81972 13534 ft 334 kts
2026-05-06 10:12 44.96321 4.82210 13140 ft 333 kts
2026-05-06 10:12 44.98630 4.82447 12752 ft 331 kts
2026-05-06 10:13 45.00910 4.82683 12356 ft 329 kts
2026-05-06 10:13 45.03194 4.82918 11960 ft 328 kts
2026-05-06 10:13 45.05470 4.83153 11576 ft 326 kts
2026-05-06 10:13 45.07703 4.83381 11181 ft 324 kts
2026-05-06 10:14 45.09943 4.83612 10793 ft 322 kts
2026-05-06 10:14 45.12107 4.83835 10404 ft 321 kts
2026-05-06 10:14 45.14319 4.84065 10041 ft 318 kts
2026-05-06 10:14 45.16515 4.84331 9895 ft 308 kts
2026-05-06 10:15 45.18596 4.84886 9650 ft 303 kts 13°
2026-05-06 10:15 45.20580 4.85686 9365 ft 296 kts 15°
2026-05-06 10:15 45.22539 4.86535 8929 ft 293 kts 15°
2026-05-06 10:15 45.24479 4.87383 8521 ft 288 kts 15°
2026-05-06 10:16 45.26381 4.88210 8159 ft 282 kts 15°
2026-05-06 10:16 45.28198 4.89223 7802 ft 282 kts 27°
2026-05-06 10:16 45.29783 4.90827 7462 ft 283 kts 39°
2026-05-06 10:16 45.31240 4.92705 7118 ft 283 kts 42°
2026-05-06 10:17 45.32658 4.94599 6776 ft 282 kts 42°
2026-05-06 10:17 45.34100 4.96515 6426 ft 282 kts 42°
2026-05-06 10:17 45.35522 4.98387 6090 ft 281 kts 41°
2026-05-06 10:17 45.36963 5.00272 5746 ft 280 kts 41°
2026-05-06 10:18 45.38375 5.02110 5407 ft 270 kts 42°
2026-05-06 10:18 45.39727 5.03870 5083 ft 259 kts 42°
2026-05-06 10:18 45.41025 5.05562 4773 ft 249 kts 42°
2026-05-06 10:18 45.42279 5.07198 4473 ft 238 kts 42°
2026-05-06 10:19 45.43479 5.08766 4320 ft 232 kts 42°
2026-05-06 10:19 45.44655 5.10303 4250 ft 232 kts 42°
2026-05-06 10:19 45.45896 5.11773 4144 ft 231 kts 27°
2026-05-06 10:19 45.47443 5.12352 3944 ft 232 kts
2026-05-06 10:20 45.49052 5.12272 3650 ft 233 kts 355°
2026-05-06 10:20 45.50670 5.12026 3361 ft 234 kts 354°
2026-05-06 10:20 45.52287 5.11772 3085 ft 234 kts 355°
2026-05-06 10:20 45.53894 5.11550 2971 ft 226 kts 355°
2026-05-06 10:21 45.55403 5.11361 3019 ft 211 kts 356°
2026-05-06 10:21 45.56813 5.11193 3015 ft 195 kts 356°
2026-05-06 10:21 45.58087 5.11043 2982 ft 172 kts 356°
2026-05-06 10:21 45.59203 5.10910 2941 ft 150 kts 356°
2026-05-06 10:22 45.60196 5.10793 2923 ft 139 kts 355°
2026-05-06 10:22 45.61156 5.10680 2775 ft 138 kts 355°
2026-05-06 10:22 45.62114 5.10568 2553 ft 138 kts 355°
2026-05-06 10:22 45.63068 5.10463 2348 ft 138 kts 356°
2026-05-06 10:23 45.64030 5.10354 2202 ft 139 kts 356°
2026-05-06 10:23 45.64996 5.10232 2028 ft 140 kts 355°
2026-05-06 10:23 45.65968 5.10087 1852 ft 141 kts 354°
2026-05-06 10:23 45.66940 5.09978 1682 ft 140 kts 356°
2026-05-06 10:24 45.67926 5.09872 1495 ft 139 kts 355°
2026-05-06 10:24 45.68889 5.09755 1291 ft 139 kts 354°
2026-05-06 10:24 45.69846 5.09636 1121 ft 138 kts 355°
2026-05-06 10:24 45.70800 5.09514 932 ft 137 kts 355°
2026-05-06 10:25 45.71733 5.09400 820 ft 126 kts 355°
2026-05-06 10:25 45.72470 5.09315 806 ft 82 kts 354°
2026-05-06 10:25 45.72774 5.09244 799 ft 24 kts 339°
2026-05-06 10:25 45.72897 5.09138 795 ft 16 kts 328°
2026-05-06 10:26 45.72970 5.09062 794 ft 7 kts 301°
2026-05-06 10:26 45.72969 5.08972 792 ft 10 kts 264°
2026-05-06 10:26 45.72962 5.08859 791 ft 12 kts 265°
2026-05-06 10:26 45.72954 5.08729 790 ft 13 kts 264°
2026-05-06 10:27 45.72945 5.08589 789 ft 14 kts 264°
2026-05-06 10:27 45.72932 5.08445 787 ft 13 kts 257°
2026-05-06 10:27 45.72871 5.08355 787 ft 13 kts 189°
2026-05-06 10:27 45.72781 5.08356 789 ft 12 kts 174°
2026-05-06 10:28 45.72700 5.08370 790 ft 11 kts 174°
2026-05-06 10:28 45.72606 5.08379 792 ft 17 kts 175°
2026-05-06 10:28 45.72449 5.08398 794 ft 26 kts 175°
2026-05-06 10:28 45.72355 5.08404 795 ft 10 kts 199°
2026-05-06 10:29 45.72325 5.08313 795 ft 11 kts 256°
2026-05-06 10:29 45.72270 5.08284 795 ft 5 kts 147°
2026-05-06 10:29 45.72251 5.08297 795 ft 1 kts 201°
2026-05-06 10:29 45.72241 5.08275 795 ft 3 kts 245°
2026-05-06 10:30 45.72229 5.08233 795 ft 5 kts 250°
2026-05-06 10:30 45.72219 5.08193 795 ft 2 kts 249°
2026-05-06 10:30 45.72217 5.08186 795 ft 0 kts 249°